ASA306 KPHX-KSAN

Flight info

Callsign ASA306
Flight time 0h 55m
Altitude 36000
Route FYRBD1 MOHAK J2 HOGGZ LUCKI1
Aircraft B739/M-SDE2E3FGHIRWXY/LB1

Departure

Time 2026-05-06 01:47
Airport Phoenix Sky Harbor International Airport (KPHX)

Arrival

Time 2026-05-06 02:42
Airport San Diego International Airport (KSAN)
Time Latitude Longitude Altitude Speed Heading
2026-05-06 01:31 33.43825 -111.99457 1134 ft 0 kts 178°
2026-05-06 01:41 33.43837 -111.99457 1135 ft 3 kts 178°
2026-05-06 01:41 33.43855 -111.99458 1132 ft 3 kts 178°
2026-05-06 01:41 33.43874 -111.99459 1133 ft 3 kts 178°
2026-05-06 01:42 33.43891 -111.99465 1132 ft 3 kts 123°
2026-05-06 01:42 33.43896 -111.99481 1133 ft 0 kts 71°
2026-05-06 01:43 33.43901 -111.99451 1131 ft 12 kts 81°
2026-05-06 01:44 33.43890 -111.99305 1134 ft 20 kts 143°
2026-05-06 01:44 33.43754 -111.99298 1133 ft 19 kts 180°
2026-05-06 01:44 33.43631 -111.99248 1132 ft 19 kts 166°
2026-05-06 01:44 33.43504 -111.99235 1131 ft 18 kts 179°
2026-05-06 01:45 33.43360 -111.99234 1133 ft 21 kts 180°
2026-05-06 01:45 33.43298 -111.99235 1133 ft 7 kts 181°
2026-05-06 01:45 33.43239 -111.99248 1133 ft 14 kts 204°
2026-05-06 01:45 33.43141 -111.99336 1136 ft 20 kts 227°
2026-05-06 01:46 33.43105 -111.99484 1134 ft 19 kts 268°
2026-05-06 01:46 33.43101 -111.99731 1135 ft 64 kts 270°
2026-05-06 01:46 33.43101 -112.00607 1136 ft 143 kts 269°
2026-05-06 01:46 33.43117 -112.02024 1315 ft 192 kts 270°
2026-05-06 01:47 33.43133 -112.03691 2082 ft 205 kts 269°
2026-05-06 01:47 33.43066 -112.05428 2924 ft 215 kts 262°
2026-05-06 01:47 33.42700 -112.07194 3656 ft 223 kts 251°
2026-05-06 01:47 33.42168 -112.08995 4260 ft 238 kts 250°
2026-05-06 01:48 33.41561 -112.10915 4936 ft 253 kts 249°
2026-05-06 01:48 33.40890 -112.12921 5722 ft 265 kts 248°
2026-05-06 01:48 33.40155 -112.14981 6658 ft 268 kts 248°
2026-05-06 01:48 33.39380 -112.17034 7613 ft 273 kts 244°
2026-05-06 01:49 33.38277 -112.18847 8689 ft 275 kts 223°
2026-05-06 01:49 33.36536 -112.19970 9184 ft 303 kts 199°
2026-05-06 01:49 33.34358 -112.20202 9747 ft 319 kts 176°
2026-05-06 01:49 33.32135 -112.19630 10285 ft 340 kts 160°
2026-05-06 01:50 33.30000 -112.18258 10843 ft 353 kts 152°
2026-05-06 01:50 33.27812 -112.16949 11833 ft 350 kts 158°
2026-05-06 01:50 33.25523 -112.15936 12644 ft 352 kts 173°
2026-05-06 01:50 33.23152 -112.16112 13479 ft 347 kts 200°
2026-05-06 01:51 33.21077 -112.17599 14243 ft 347 kts 226°
2026-05-06 01:51 33.19828 -112.20002 14969 ft 349 kts 251°
2026-05-06 01:51 33.19605 -112.22899 15689 ft 356 kts 278°
2026-05-06 01:51 33.20451 -112.25696 16466 ft 363 kts 292°
2026-05-06 01:52 33.21137 -112.28580 17121 ft 364 kts 270°
2026-05-06 01:52 33.20667 -112.31522 17830 ft 365 kts 245°
2026-05-06 01:52 33.19157 -112.33953 18536 ft 369 kts 224°
2026-05-06 01:52 33.17231 -112.35961 19325 ft 367 kts 223°
2026-05-06 01:53 33.15370 -112.38008 20315 ft 356 kts 227°
2026-05-06 01:53 33.13675 -112.40099 21444 ft 346 kts 230°
2026-05-06 01:53 33.12087 -112.42256 22234 ft 345 kts 232°
2026-05-06 01:53 33.10562 -112.44468 22926 ft 346 kts 233°
2026-05-06 01:54 33.09067 -112.46718 23600 ft 347 kts 234°
2026-05-06 01:54 33.07569 -112.49018 23921 ft 354 kts 234°
2026-05-06 01:54 33.06063 -112.51342 24499 ft 354 kts 234°
2026-05-06 01:54 33.04565 -112.53654 25209 ft 350 kts 234°
2026-05-06 01:55 33.03084 -112.55937 25963 ft 345 kts 234°
2026-05-06 01:55 33.01632 -112.58177 26859 ft 337 kts 234°
2026-05-06 01:55 33.00216 -112.60358 27832 ft 327 kts 234°
2026-05-06 01:55 32.98863 -112.62440 28827 ft 317 kts 234°
2026-05-06 01:56 32.97532 -112.64486 29809 ft 308 kts 234°
2026-05-06 01:56 32.96354 -112.66579 30521 ft 303 kts 242°
2026-05-06 01:56 32.95533 -112.68893 31003 ft 305 kts 248°
2026-05-06 01:56 32.95048 -112.71393 31285 ft 314 kts 254°
2026-05-06 01:57 32.94686 -112.73994 31526 ft 321 kts 255°
2026-05-06 01:57 32.94343 -112.76642 31820 ft 325 kts 255°
2026-05-06 01:57 32.93653 -112.81992 31902 ft 327 kts 255°
2026-05-06 01:58 32.92949 -112.87338 31907 ft 326 kts 255°
2026-05-06 01:58 32.92232 -112.92678 31900 ft 326 kts 255°
2026-05-06 01:59 32.91511 -112.98002 31897 ft 326 kts 255°
2026-05-06 01:59 32.90788 -113.03298 31897 ft 326 kts 255°
2026-05-06 02:00 32.90061 -113.08622 31895 ft 326 kts 255°
2026-05-06 02:00 32.89326 -113.13965 31900 ft 328 kts 255°
2026-05-06 02:01 32.88584 -113.19338 31888 ft 330 kts 255°
2026-05-06 02:01 32.87838 -113.24732 31880 ft 331 kts 255°
2026-05-06 02:02 32.87089 -113.30128 31881 ft 333 kts 255°
2026-05-06 02:02 32.86332 -113.35572 31886 ft 334 kts 255°
2026-05-06 02:03 32.85572 -113.41017 31868 ft 334 kts 255°
2026-05-06 02:03 32.84808 -113.46474 31864 ft 334 kts 256°
2026-05-06 02:04 32.84043 -113.51919 31862 ft 334 kts 256°
2026-05-06 02:04 32.83274 -113.57372 31893 ft 334 kts 256°
2026-05-06 02:05 32.82505 -113.62814 31890 ft 334 kts 256°
2026-05-06 02:05 32.81731 -113.68264 31890 ft 334 kts 256°
2026-05-06 02:06 32.80963 -113.73669 31890 ft 333 kts 256°
2026-05-06 02:06 32.80188 -113.79118 31896 ft 336 kts 256°
2026-05-06 02:07 32.79403 -113.84617 31889 ft 339 kts 256°
2026-05-06 02:07 32.78609 -113.90170 31886 ft 342 kts 256°
2026-05-06 02:08 32.77806 -113.95759 31880 ft 344 kts 256°
2026-05-06 02:08 32.77469 -114.01477 31875 ft 350 kts 264°
2026-05-06 02:09 32.77483 -114.07230 31861 ft 350 kts 264°
2026-05-06 02:09 32.77425 -114.13000 31870 ft 348 kts 264°
2026-05-06 02:10 32.77340 -114.18738 31874 ft 346 kts 264°
2026-05-06 02:10 32.77251 -114.24457 31861 ft 345 kts 264°
2026-05-06 02:11 32.77177 -114.29192 31861 ft 345 kts 264°
2026-05-06 02:11 32.77071 -114.35822 31855 ft 345 kts 264°
2026-05-06 02:12 32.76979 -114.41558 31934 ft 351 kts 265°
2026-05-06 02:12 32.76896 -114.46429 31927 ft 356 kts 265°
2026-05-06 02:13 32.76796 -114.52306 31912 ft 356 kts 265°
2026-05-06 02:13 32.76695 -114.58173 31915 ft 355 kts 265°
2026-05-06 02:14 32.76590 -114.64047 31916 ft 354 kts 265°
2026-05-06 02:14 32.76483 -114.69896 31915 ft 353 kts 265°
2026-05-06 02:15 32.76373 -114.75729 31919 ft 353 kts 265°
2026-05-06 02:15 32.76260 -114.81555 31916 ft 352 kts 265°
2026-05-06 02:16 32.76145 -114.87341 31915 ft 352 kts 265°
2026-05-06 02:16 32.76028 -114.93160 31926 ft 352 kts 265°
2026-05-06 02:17 32.75907 -114.98970 31931 ft 352 kts 265°
2026-05-06 02:17 32.75783 -115.04797 31936 ft 353 kts 265°
2026-05-06 02:18 32.75657 -115.10637 31937 ft 354 kts 265°
2026-05-06 02:18 32.75527 -115.16503 31935 ft 355 kts 265°
2026-05-06 02:19 32.75396 -115.22349 31853 ft 350 kts 265°
2026-05-06 02:19 32.75331 -115.25221 31534 ft 344 kts 265°
2026-05-06 02:19 32.75266 -115.28054 31106 ft 340 kts 265°
2026-05-06 02:20 32.75137 -115.33572 30241 ft 334 kts 266°
2026-05-06 02:20 32.75071 -115.36321 29763 ft 331 kts 266°
2026-05-06 02:20 32.75005 -115.39049 29251 ft 328 kts 266°
2026-05-06 02:21 32.74940 -115.41740 28801 ft 324 kts 266°
2026-05-06 02:21 32.74874 -115.44413 28329 ft 321 kts 267°
2026-05-06 02:21 32.74809 -115.47051 27894 ft 318 kts 267°
2026-05-06 02:21 32.74744 -115.49674 27446 ft 316 kts 267°
2026-05-06 02:22 32.74679 -115.52269 27014 ft 313 kts 267°
2026-05-06 02:22 32.74613 -115.54849 26587 ft 311 kts 267°
2026-05-06 02:22 32.74547 -115.57418 26161 ft 310 kts 268°
2026-05-06 02:22 32.74482 -115.59970 25743 ft 309 kts 268°
2026-05-06 02:23 32.74416 -115.62511 25359 ft 308 kts 268°
2026-05-06 02:23 32.74349 -115.65055 24938 ft 308 kts 268°
2026-05-06 02:23 32.74283 -115.67574 24473 ft 311 kts 269°
2026-05-06 02:23 32.74215 -115.70165 24033 ft 315 kts 269°
2026-05-06 02:24 32.74144 -115.72800 23594 ft 324 kts 269°
2026-05-06 02:24 32.74072 -115.75513 23073 ft 331 kts 269°
2026-05-06 02:24 32.73998 -115.78245 22605 ft 331 kts 269°
2026-05-06 02:24 32.73923 -115.80964 22147 ft 329 kts 269°
2026-05-06 02:25 32.73848 -115.83678 21696 ft 328 kts 269°
2026-05-06 02:25 32.73773 -115.86356 21266 ft 326 kts 269°
2026-05-06 02:25 32.73698 -115.89043 20837 ft 324 kts 269°
2026-05-06 02:25 32.73622 -115.91713 20400 ft 323 kts 269°
2026-05-06 02:26 32.73546 -115.94386 19951 ft 323 kts 269°
2026-05-06 02:26 32.73469 -115.97052 19515 ft 322 kts 269°
2026-05-06 02:26 32.73393 -115.99708 19067 ft 323 kts 269°
2026-05-06 02:26 32.73316 -116.02342 18664 ft 322 kts 270°
2026-05-06 02:27 32.73238 -116.05034 18187 ft 322 kts 270°
2026-05-06 02:27 32.73159 -116.07687 17748 ft 321 kts 270°
2026-05-06 02:27 32.73082 -116.10296 17309 ft 319 kts 269°
2026-05-06 02:27 32.73004 -116.12918 16874 ft 317 kts 270°
2026-05-06 02:28 32.72924 -116.15567 16462 ft 316 kts 270°
2026-05-06 02:28 32.72846 -116.18141 16048 ft 314 kts 270°
2026-05-06 02:28 32.72767 -116.20734 15604 ft 314 kts 269°
2026-05-06 02:28 32.72687 -116.23319 15190 ft 313 kts 270°
2026-05-06 02:29 32.72607 -116.25901 14792 ft 311 kts 269°
2026-05-06 02:29 32.72528 -116.28470 14348 ft 311 kts 271°
2026-05-06 02:29 32.72448 -116.31030 13931 ft 310 kts 269°
2026-05-06 02:29 32.72367 -116.33599 13438 ft 310 kts 269°
2026-05-06 02:30 32.72286 -116.36154 13017 ft 308 kts 270°
2026-05-06 02:30 32.72204 -116.38687 12604 ft 307 kts 270°
2026-05-06 02:30 32.72123 -116.41219 12147 ft 306 kts 270°
2026-05-06 02:30 32.72041 -116.43741 11728 ft 305 kts 270°
2026-05-06 02:31 32.71960 -116.46260 11291 ft 304 kts 270°
2026-05-06 02:31 32.71878 -116.48771 10853 ft 304 kts 269°
2026-05-06 02:31 32.71795 -116.51283 10426 ft 305 kts 269°
2026-05-06 02:31 32.71711 -116.53768 10210 ft 297 kts 269°
2026-05-06 02:32 32.71630 -116.56191 10004 ft 290 kts 270°
2026-05-06 02:32 32.71552 -116.58491 10009 ft 275 kts 270°
2026-05-06 02:32 32.71476 -116.60773 9364 ft 284 kts 269°
2026-05-06 02:32 32.71398 -116.63127 8864 ft 287 kts 269°
2026-05-06 02:33 32.71318 -116.65501 8431 ft 288 kts 269°
2026-05-06 02:33 32.71263 -116.67106 8157 ft 287 kts 269°
2026-05-06 02:33 32.71078 -116.72456 7299 ft 271 kts 268°
2026-05-06 02:34 32.71000 -116.74685 6971 ft 270 kts 268°
2026-05-06 02:34 32.70923 -116.76906 6642 ft 268 kts 268°
2026-05-06 02:34 32.70845 -116.79118 6297 ft 268 kts 267°
2026-05-06 02:34 32.70762 -116.81311 6113 ft 261 kts 266°
2026-05-06 02:35 32.70344 -116.83396 5774 ft 260 kts 249°
2026-05-06 02:35 32.69683 -116.85372 5502 ft 257 kts 250°
2026-05-06 02:35 32.69046 -116.87344 5190 ft 254 kts 250°
2026-05-06 02:35 32.68441 -116.89277 4899 ft 245 kts 251°
2026-05-06 02:36 32.67882 -116.91154 4612 ft 237 kts 252°
2026-05-06 02:36 32.67376 -116.92982 4338 ft 227 kts 260°
2026-05-06 02:36 32.67450 -116.94772 4090 ft 211 kts 284°
2026-05-06 02:36 32.67824 -116.96406 3862 ft 201 kts 286°
2026-05-06 02:37 32.68208 -116.97931 3718 ft 184 kts 287°
2026-05-06 02:37 32.68557 -116.99316 3665 ft 169 kts 286°
2026-05-06 02:37 32.68894 -117.00675 3493 ft 174 kts 287°
2026-05-06 02:37 32.69228 -117.02030 3235 ft 169 kts 286°
2026-05-06 02:38 32.69548 -117.03332 3030 ft 157 kts 287°
2026-05-06 02:38 32.69847 -117.04549 2757 ft 149 kts 286°
2026-05-06 02:38 32.70121 -117.05665 2538 ft 134 kts 286°
2026-05-06 02:38 32.70389 -117.06754 2345 ft 139 kts 285°
2026-05-06 02:39 32.70657 -117.07852 2117 ft 138 kts 285°
2026-05-06 02:39 32.70918 -117.08927 1894 ft 134 kts 285°
2026-05-06 02:39 32.71172 -117.09968 1709 ft 129 kts 286°
2026-05-06 02:39 32.71419 -117.10976 1512 ft 129 kts 286°
2026-05-06 02:40 32.71670 -117.12021 1294 ft 135 kts 286°
2026-05-06 02:40 32.71927 -117.13081 1092 ft 131 kts 287°
2026-05-06 02:40 32.72184 -117.14132 902 ft 135 kts 287°
2026-05-06 02:40 32.72440 -117.15196 671 ft 133 kts 288°
2026-05-06 02:41 32.72713 -117.16248 479 ft 135 kts 288°
2026-05-06 02:41 32.72972 -117.17340 238 ft 137 kts 286°
2026-05-06 02:41 32.73222 -117.18402 29 ft 126 kts 287°
2026-05-06 02:41 32.73432 -117.19276 19 ft 89 kts 286°
2026-05-06 02:42 32.73540 -117.19760 27 ft 14 kts 255°
2026-05-06 02:42 32.73512 -117.19842 27 ft 5 kts 230°
2026-05-06 02:42 32.73480 -117.19869 24 ft 6 kts 210°
2026-05-06 02:42 32.73474 -117.19872 24 ft 0 kts 203°
2026-05-06 02:43 32.73473 -117.19873 25 ft 0 kts 202°
2026-05-06 02:43 32.73472 -117.19874 25 ft 0 kts 202°
2026-05-06 02:44 32.73471 -117.19874 25 ft 0 kts 202°
2026-05-06 02:45 32.73470 -117.19874 25 ft 0 kts 200°
2026-05-06 02:45 32.73468 -117.19873 25 ft 0 kts 176°
2026-05-06 02:46 32.73454 -117.19839 24 ft 11 kts 92°
2026-05-06 02:46 32.73431 -117.19716 22 ft 17 kts 130°
2026-05-06 02:46 32.73332 -117.19730 19 ft 12 kts 241°
2026-05-06 02:46 32.73336 -117.19765 19 ft 2 kts 292°
2026-05-06 02:47 32.73339 -117.19777 19 ft 0 kts 287°